カタログに戻る

STARLINK-32389

運用中通信VLEO
NORAD 61549·PAYLOAD·🇺🇸 United States

打ち上げ Oct 15, 2024 から Vandenberg Space Force Base

Loading…

次のパス (今後24時間)

TLE

最新Source: CelesTrak SupGP

元期: Sep 15, 2026, 03:10 UTC

1 61549C 24184T   26258.13243056 -.00124270  00000+0 -36707-2 0  2581
2 61549  53.1591 212.5182 0001361  85.6472 232.2644 15.34459402    16

AllMySatでSTARLINK-32389をリアルタイム追跡

Download on the App Store